Temp
16 17 18 21 23 23 25 25 24 24 24 26 26 27 27 29 28 28 18 19 18 20 19 18 19 19 19 19 19 19 20 20 19 19 19 18 18 19 19 19 19 19 19 18 19 18 18 18 17
17 17 19 22 23 24 26 26 23 26 25 23 24 25 26 27 25 22 21 17 18 20 20 20 19 19 19 19 19 19 19 19 19 19 19 18 18 18 19 19 19 19 19 18 18 18 17 17 18
17 19 22 23 24 24 26 24 26 25 23 24 25 24 26 27 22 22 18 18 19 19 19 20 19 19 19 19 19 19 19 19 19 19 18 18 18 18 18 19 19 18 18 18 18 18 18 18 17
18 20 20 22 23 25 24 24 22 23 23 23 25 25 22 20 21 19 17 18 19 19 19 19 19 19 19 19 19 19 19 19 19 19 18 18 17 18 19 19 19 18 18 18 18 18 18 18 18
18 21 22 21 23 25 23 23 23 24 24 24 24 25 24 19 17 17 17 18 19 19 19 18 19 19 19 19 18 18 18 18 18 18 18 17 17 17 17 18 17 17 17 17 17 17 16 17 18
20 21 21 22 23 25 22 24 23 24 24 23 23 24 25 17 17 17 17 18 19 19 19 19 18 19 19 18 18 18 18 18 18 17 17 17 17 17 17 17 17 17 17 17 16 16 16 17 18
20 20 22 23 23 25 22 22 23 25 25 24 25 25 23 19 17 16 17 18 18 19 18 19 19 19 19 19 18 17 17 17 17 17 17 16 16 16 16 16 16 16 17 16 16 16 16 16 17
20 20 21 21 22 23 23 22 23 24 25 22 24 25 25 21 15 15 16 18 18 17 18 19 19 18 18 18 17 17 17 17 16 16 16 17 16 16 15 15 15 15 16 16 16 16 15 16 16
18 19 20 20 21 24 22 22 22 21 23 22 22 21 16 15 14 14 15 16 17 17 17 18 18 19 18 16 16 17 17 17 17 18 17 16 16 16 16 15 14 14 14 14 15 14 15 16 16
17 18 20 22 23 22 22 22 22 21 22 21 20 16 13 13 13 14 16 16 16 17 17 17 16 16 16 16 16 17 17 17 17 17 16 16 16 15 14 14 14 14 14 15 14 14 15 15 15
17 19 21 21 22 22 22 21 22 22 22 24 22 21 16 15 13 14 16 18 15 16 16 16 17 15 16 16 16 16 16 16 16 16 16 16 15 14 13 13 13 13 13 13 13 13 14 14 14
16 18 20 21 20 20 21 22 21 22 24 23 23 20 16 16 15 15 16 15 14 14 15 15 16 16 14 14 16 15 16 15 16 15 16 16 15 13 12 12 12 12 11 11 11 12 13 13 13
14 18 18 19 19 19 20 20 21 21 23 21 19 17 17 17 17 15 15 13 14 14 13 14 15 15 15 15 15 14 14 15 15 15 14 15 15 14 13 12 12 12 10 10 10 11 12 12 12
15 14 17 18 18 18 18 19 20 21 22 19 18 18 18 17 17 15 14 12 13 13 13 12 13 15 15 15 14 14 14 14 13 14 15 13 14 15 14 13 12 11 10 9 10 10 11 11 11
16 15 16 17 17 18 18 18 19 20 21 20 18 19 18 17 16 16 15 13 13 12 12 13 11 14 14 13 13 13 12 13 13 13 12 12 13 13 13 13 12 11 11 10 10 9 10 10 10
15 15 15 17 17 17 17 18 19 20 20 19 20 19 18 16 17 17 16 14 12 12 12 11 11 12 12 11 12 12 11 11 12 11 12 12 12 12 13 12 11 11 10 10 8 8 8 9 9
14 14 14 17 17 17 16 17 19 19 19 19 20 20 19 17 15 16 15 14 11 11 11 10 10 10 10 9 10 9 10 11 10 10 10 11 11 11 13 11 10 10 10 9 9 8 7 7 8
15 14 16 16 17 16 16 16 19 19 18 19 19 20 19 17 15 13 12 11 10 10 9 9 8 9 8 8 8 8 7 7 6 9 10 10 9 10 12 11 10 9 9 9 8 8 7 5 5
17 16 16 16 17 16 16 17 17 15 16 17 17 16 16 16 15 12 10 9 9 9 8 8 7 6 7 5 6 6 5 6 6 7 8 8 10 9 10 10 9 8 8 8 8 7 7 4 4
14 14 15 15 15 15 16 16 17 17 15 15 15 14 13 12 11 11 9 8 8 7 7 6 6 6 6 6 4 4 4 4 5 5 5 6 7 8 8 10 9 8 8 7 7 7 5 5 5
10 13 14 14 14 14 15 15 15 14 11 10 9 10 9 11 11 9 9 7 6 5 5 5 5 5 5 6 4 2 3 3 4 4 4 5 6 6 7 7 8 7 7 7 6 6 6 5 4
11 10 9 10 12 12 15 15 16 15 13 10 9 9 9 9 10 9 8 6 5 4 4 4 4 4 4 5 4 2 4 3 2 3 3 4 4 5 5 6 6 6 6 6 5 5 6 6 4
11 13 11 10 10 12 12 13 16 12 13 10 7 6 6 8 8 7 7 5 3 3 3 3 3 2 3 3 3 4 2 1 2 2 3 3 3 4 4 5 5 5 5 5 4 4 5 5 5
12 10 10 12 10 10 14 14 15 13 10 5 5 5 5 5 4 3 3 2 2 2 2 2 2 1 2 2 3 4 3 2 2 2 2 2 3 3 3 4 4 4 4 4 4 4 4 4 4
9 10 9 9 9 11 14 12 12 6 3 4 4 4 3 3 3 3 2 2 1 1 1 1 1 0 1 2 3 3 3 2 2 1 2 2 2 2 2 3 3 3 3 3 3 3 3 3 3
8 10 10 10 11 11 10 10 10 1 1 1 2 3 2 2 2 2 2 1 0 0 0 0 0 -0 1 2 2 2 2 1 1 2 2 1 1 1 1 2 2 2 2 2 2 2 1 1 1
7 8 7 8 8 12 11 7 3 3 2 3 3 2 1 1 1 1 1 0 -0 -1 -1 -0 -0 -0 1 1 1 1 2 2 2 1 1 1 1 0 1 1 1 1 1 1 0 -0 -1 -0 -0
7 7 8 9 9 10 10 9 10 3 3 3 2 2 1 1 0 0 -0 -1 -1 -1 -1 -1 -0 0 1 1 1 1 1 1 1 1 1 0 0 0 0 0 0 0 0 0 -0 -1 -1 -1 -1
7 7 7 8 8 11 11 10 4 4 3 3 2 1 1 0 0 -0 -1 -1 -2 -1 -1 -1 -1 -0 -0 -0 -1 1 1 0 -0 -1 -1 -1 -0 -0 -0 -0 -0 -1 -1 -0 -1 -1 -2 -2 -2
4 4 5 8 8 8 10 8 1 2 3 2 2 2 1 1 0 -0 -1 -1 -2 -2 -2 -2 -2 -2 -0 0 0 0 -0 -0 -0 -1 -1 -1 -2 -2 -1 -1 -1 -1 -1 -1 -1 -1 -1 -2 -2
Height
791 792 794 792 798 791 779 775 774 775 777 767 766 768 768 759 767 777 776 777 779 783 787 790 793 796 800 804 808 810 812 814 816 819 822 824 826 827 829 831 831 832 833 835 837 838 839 839 839
790 792 794 788 788 785 769 765 774 765 767 769 771 771 770 768 767 773 775 778 781 785 789 792 795 798 801 804 809 812 814 815 818 820 822 825 827 829 831 832 834 835 835 837 839 842 843 843 842
790 791 786 785 777 771 763 767 759 763 767 768 768 769 767 764 771 772 775 778 782 786 790 793 796 799 803 805 809 813 815 817 820 822 825 826 828 830 833 834 835 837 838 839 842 843 846 846 845
788 789 788 783 770 763 767 762 767 768 768 769 765 767 770 770 771 773 776 779 784 787 790 793 797 800 804 807 811 814 817 818 821 824 826 829 831 832 834 836 837 840 840 843 845 847 847 847 847
785 778 778 778 765 757 767 764 765 765 763 765 767 765 766 771 773 774 777 781 784 789 791 795 798 801 804 808 812 814 817 819 822 824 828 830 833 835 837 839 839 841 844 846 847 849 851 851 851
779 773 774 769 759 750 764 760 763 764 762 766 769 767 762 770 772 774 778 782 786 789 792 796 799 803 805 810 813 816 818 822 825 827 830 833 834 837 840 841 843 846 848 849 849 851 853 853 854
768 770 761 757 757 748 761 760 762 756 758 761 759 763 763 770 773 775 779 783 787 790 793 797 801 805 808 811 814 817 821 823 825 827 829 832 835 839 842 845 847 849 850 851 852 855 855 856 856
765 765 758 758 757 746 748 758 754 755 752 759 757 758 757 766 772 776 779 783 786 790 793 796 801 806 811 814 816 818 821 824 826 830 833 835 838 841 844 847 849 851 852 854 856 856 857 858 860
765 762 754 757 751 742 749 754 754 755 754 758 758 759 768 770 773 776 778 782 784 789 792 797 801 806 810 813 816 819 823 827 830 833 836 839 841 844 847 849 851 853 854 855 857 858 859 861 863
757 751 743 736 735 740 746 749 749 754 754 757 760 766 769 771 774 775 775 777 781 786 790 794 798 802 806 812 818 820 823 827 831 834 838 841 844 847 850 853 854 855 856 858 860 861 862 864 865
745 733 732 732 734 737 741 747 743 746 753 744 751 754 766 769 774 776 778 781 781 783 787 793 796 803 807 812 817 821 824 828 832 836 838 841 845 849 852 855 857 858 859 860 862 863 864 865 867
738 735 733 733 740 742 740 738 744 741 739 741 745 752 762 765 769 774 777 780 783 785 787 790 796 800 806 811 816 821 824 829 832 836 840 841 844 848 852 854 857 859 861 862 864 864 866 867 869
738 729 735 733 737 740 738 740 738 740 737 744 749 754 758 763 767 772 777 780 783 786 788 791 794 800 806 811 816 821 825 829 832 836 840 842 844 847 851 854 857 859 861 864 866 866 868 869 871
731 739 735 735 736 738 741 738 738 736 736 745 748 750 754 757 762 770 773 777 782 786 788 792 794 800 805 810 815 820 824 829 832 836 838 844 844 846 851 854 857 859 862 864 866 868 869 871 874
730 734 733 730 735 734 739 735 732 734 734 740 745 747 751 755 760 762 767 774 778 784 788 791 798 798 804 809 815 819 825 829 832 835 840 844 844 847 852 855 858 860 862 864 866 868 871 873 876
729 732 729 726 731 732 736 711 725 730 732 736 737 741 749 753 754 761 767 772 777 781 786 792 794 799 804 809 814 819 823 827 832 836 840 843 846 848 852 857 859 861 864 866 868 870 872 875 877
721 715 726 718 724 727 729 717 716 722 727 729 730 732 740 747 756 758 763 770 775 779 783 788 794 799 804 810 815 821 825 829 834 836 841 844 848 849 851 857 860 863 865 867 869 872 875 877 879
705 712 706 713 714 722 723 719 715 718 723 722 726 728 736 744 750 758 764 768 773 779 783 788 794 798 802 808 815 822 827 832 835 838 840 845 848 849 851 856 861 864 866 868 870 873 875 878 881
695 700 703 706 709 716 712 713 715 726 726 725 728 734 737 743 749 757 765 768 770 777 783 787 792 798 803 809 814 822 828 832 837 840 844 846 846 850 852 857 861 865 867 868 872 873 876 881 883
702 701 702 708 712 713 707 708 710 717 726 727 730 736 741 747 751 757 763 766 770 775 780 786 791 796 804 811 816 819 825 832 836 842 845 848 848 851 854 856 861 865 868 871 872 876 877 880 885
707 699 697 702 711 712 709 712 712 723 736 740 744 744 747 746 749 756 761 765 770 774 779 784 790 796 802 808 815 823 826 833 837 844 847 847 850 853 856 859 861 865 869 871 874 876 879 880 884
699 711 720 721 713 709 708 698 697 710 722 737 743 745 746 748 750 756 760 765 769 775 780 785 790 795 802 808 814 825 819 830 839 844 846 846 852 854 858 860 864 867 870 873 876 878 879 881 884
697 693 706 717 717 713 717 710 692 713 716 729 747 751 752 751 752 757 761 766 771 775 780 786 790 797 802 809 816 814 823 831 837 841 847 848 854 856 860 862 865 869 872 875 878 879 881 882 883
693 707 712 706 715 711 692 699 686 704 721 747 753 753 756 755 758 761 764 768 773 778 782 787 792 798 803 809 814 817 823 831 836 841 848 850 855 857 862 863 865 870 873 876 878 880 882 884 884
707 708 712 715 713 694 683 701 696 741 755 752 752 756 760 760 762 764 767 770 775 780 784 789 793 799 805 810 815 821 825 833 837 843 847 851 856 858 865 865 867 872 874 877 879 881 884 884 885
702 696 690 685 689 689 707 704 709 761 762 764 762 761 763 764 765 768 770 773 776 780 786 790 795 800 806 811 817 823 828 834 840 844 848 854 858 860 864 866 869 873 875 877 880 882 883 885 887
708 702 712 710 715 682 696 730 756 758 760 760 761 765 767 768 770 772 775 777 780 783 787 791 796 802 808 813 819 824 831 835 840 846 852 856 859 862 865 868 871 874 877 879 881 883 885 887 889
712 709 705 698 693 686 699 707 705 755 757 761 764 767 770 772 774 776 778 781 784 786 790 795 800 804 810 816 821 828 834 838 843 848 853 857 860 864 867 870 874 876 878 881 883 885 887 889 891
710 707 708 703 704 675 683 698 749 751 756 760 767 770 772 775 777 780 782 785 786 789 794 799 803 808 814 820 826 831 836 841 846 850 854 858 862 866 869 872 875 878 880 882 884 887 890 891 893
734 736 730 702 710 710 694 718 761 757 757 763 769 772 776 779 781 784 786 789 792 795 799 804 810 815 820 824 829 833 837 842 846 851 855 860 864 868 871 874 877 880 882 884 886 888 891 893 894
Wind_Speed
10 9 8 6 6 5 14 8 2 5 5 8 3 10 11 10 9 2 1 10 9 23 22 22 25 25 22 22 20 21 19 19 20 20 19 19 18 18 18 18 18 20 22 22 22 21 21 22 21
12 12 5 2 7 11 12 12 11 8 3 5 6 8 7 14 1 3 8 7 15 21 20 20 23 25 23 22 21 21 20 19 20 20 21 22 22 22 23 22 19 18 17 20 21 18 19 20 20
13 10 5 4 8 16 8 9 12 9 6 7 8 4 3 2 2 4 3 12 20 19 18 18 25 24 22 22 21 20 19 19 18 19 22 24 23 23 23 19 21 24 24 23 21 20 19 20 19
12 6 2 8 18 14 6 2 3 8 7 6 4 5 3 1 3 5 7 18 21 19 17 21 24 23 22 21 21 20 18 18 19 20 24 23 23 22 16 16 17 20 20 20 21 20 19 19 19
9 4 9 11 24 12 13 3 4 6 8 8 7 3 2 3 3 6 14 22 21 17 17 19 23 23 22 20 20 20 20 20 21 21 22 24 21 19 17 17 17 18 19 20 21 20 19 20 19
7 5 9 18 25 21 11 13 8 7 5 6 8 4 2 5 8 10 19 21 21 17 18 19 21 21 23 22 22 22 23 23 23 23 23 20 22 21 21 19 18 17 18 17 18 20 19 20 19
15 10 20 19 21 23 13 12 14 12 10 10 1 6 3 7 9 15 21 19 19 17 17 20 21 21 23 25 26 26 28 29 31 33 33 32 30 24 20 19 19 16 16 14 15 17 17 17 18
11 7 19 15 20 26 5 12 10 21 21 3 5 7 7 8 14 18 18 19 17 16 19 21 22 23 23 25 31 35 34 33 32 31 28 26 24 23 23 19 17 19 18 17 15 14 13 13 15
8 10 16 21 25 16 8 14 8 3 10 7 8 2 3 8 15 18 19 17 20 22 24 22 22 24 25 31 35 34 31 28 24 20 18 19 20 18 17 18 20 19 19 19 18 16 14 14 15
14 16 24 20 21 12 13 13 11 8 11 8 6 5 5 14 14 17 25 23 22 25 26 28 29 31 34 39 33 32 29 27 25 22 20 17 14 14 14 14 15 16 17 15 12 13 15 14 14
19 22 25 24 18 15 14 14 11 10 11 11 14 13 12 15 15 16 20 23 16 27 29 31 33 30 36 36 32 29 28 25 24 21 17 16 14 12 11 11 11 10 10 9 10 14 15 16 16
16 27 20 23 15 14 16 14 12 14 11 3 6 11 14 17 18 19 18 14 16 22 27 32 34 36 32 30 31 29 29 27 24 21 17 16 16 14 13 11 10 8 7 9 10 13 16 17 17
22 19 21 18 19 14 15 18 15 16 13 7 10 11 14 14 17 22 19 15 19 21 25 32 35 35 35 34 32 29 29 28 26 22 19 18 16 14 13 12 11 11 10 10 12 14 17 17 17
11 16 17 19 22 14 18 17 16 16 14 11 10 12 13 16 20 22 21 20 23 24 26 30 31 36 36 36 34 32 30 28 27 23 18 18 19 16 12 13 13 13 12 12 12 14 18 19 19
21 9 20 23 16 16 15 25 27 20 17 16 14 13 13 14 20 26 29 24 28 26 29 29 34 37 37 36 34 33 30 28 25 24 23 19 19 18 14 13 13 14 15 16 16 17 18 20 19
21 21 21 14 22 13 17 28 24 21 21 19 20 15 14 15 21 21 25 25 25 29 29 31 30 35 35 35 34 32 31 30 27 24 21 19 18 18 16 14 15 15 16 17 16 17 19 19 18
15 17 23 22 20 15 23 18 19 10 22 25 25 22 17 15 16 21 24 24 22 32 33 33 32 31 32 31 31 31 30 28 25 23 23 20 18 18 16 15 15 15 16 18 19 19 15 19 18
19 22 20 24 21 22 19 22 13 12 17 21 21 18 16 14 17 20 22 20 24 28 32 32 31 32 31 31 32 29 26 28 18 24 22 21 20 20 16 16 16 16 17 17 18 18 19 19 18
17 19 22 17 12 21 26 22 18 10 10 11 11 11 14 14 8 16 19 16 28 30 31 32 34 29 30 31 33 30 28 25 23 21 22 21 19 19 18 17 16 16 16 18 18 20 21 17 20
18 17 20 6 9 15 18 22 20 16 8 8 9 9 8 8 10 13 19 18 25 27 31 31 31 31 30 33 29 26 29 24 22 20 17 19 19 18 18 18 18 17 16 18 19 20 19 19 9
12 22 17 13 12 10 10 14 15 10 6 5 3 3 4 6 10 13 17 20 21 27 31 32 32 33 32 35 28 26 25 26 22 19 19 18 18 18 18 18 19 18 17 18 18 16 14 9 7
15 10 12 10 14 7 15 7 18 15 12 10 7 5 4 6 8 11 12 16 20 22 27 31 31 33 33 32 33 30 26 23 17 22 19 19 16 16 16 17 17 17 17 18 16 14 10 8 9
9 7 17 11 10 7 10 6 15 8 15 11 7 5 4 6 9 11 10 16 19 25 27 28 31 31 33 33 33 31 30 23 27 22 19 19 17 16 15 16 15 16 17 16 14 12 11 8 10
8 7 2 10 9 9 16 16 10 8 4 4 5 6 5 5 10 11 17 19 19 23 26 28 29 28 30 31 30 29 30 30 28 24 21 19 17 16 14 15 15 15 15 14 13 11 9 9 9
11 16 6 6 6 5 15 13 4 4 2 1 7 7 4 5 9 11 12 15 19 22 24 26 28 27 28 28 25 24 26 29 27 25 23 20 18 17 15 14 14 13 13 12 11 10 8 8 8
16 12 4 5 8 8 6 10 3 2 2 1 5 6 6 6 7 9 11 15 18 22 22 25 27 28 27 26 25 25 26 27 27 24 22 22 20 19 17 15 14 14 13 13 12 11 10 9 8
4 4 4 4 2 7 7 5 3 4 7 8 8 8 7 7 7 9 12 14 18 20 22 26 28 28 28 28 27 25 24 24 25 24 22 20 19 19 17 16 16 15 14 14 13 12 11 10 10
3 2 3 3 6 4 5 2 3 7 9 8 8 8 8 9 10 8 11 14 16 21 23 26 28 29 27 25 23 23 22 22 23 23 22 21 19 18 18 17 16 16 15 14 13 13 11 11 10
1 2 1 2 3 2 5 3 2 6 10 10 9 8 8 10 10 9 11 15 20 24 25 27 28 27 25 23 23 23 23 23 21 21 20 19 20 19 18 17 17 15 15 14 14 13 12 11 11
15 8 6 3 4 3 2 3 6 6 11 11 11 10 10 10 11 10 14 16 18 20 20 20 20 22 23 23 23 23 24 24 23 21 20 20 18 17 17 17 17 16 15 14 14 13 11 10 10
Wind_Direction
173 158 154 170 205 236 232 226 239 176 200 214 191 202 203 229 191 187 106 163 150 159 160 165 162 164 164 163 163 158 153 150 145 141 138 130 124 119 115 111 104 106 105 99 101 101 99 100 97
165 151 158 179 239 218 223 224 210 199 128 184 182 205 213 222 122 93 122 154 151 157 157 165 165 167 166 165 161 159 154 152 149 146 137 130 120 117 114 109 97 101 111 106 101 102 103 102 102
162 173 185 212 233 231 243 204 223 198 159 172 180 239 196 192 136 133 123 159 154 158 161 163 165 168 168 166 165 162 158 154 152 149 138 130 125 125 118 107 110 112 111 115 121 120 111 106 98
167 173 169 233 229 226 231 165 155 200 190 208 204 182 191 163 147 148 145 155 155 160 160 163 167 166 167 166 164 164 160 156 153 151 140 134 124 130 113 109 114 112 107 109 107 112 114 109 103
176 207 213 226 238 229 221 133 148 161 174 191 196 178 220 166 160 145 152 157 159 161 157 161 167 167 165 164 161 157 154 152 151 146 142 136 127 115 109 108 109 116 113 109 108 108 105 105 101
174 234 220 221 231 232 220 213 225 214 165 144 190 199 188 135 160 153 156 159 162 159 157 162 164 165 161 156 152 149 149 142 140 137 132 131 123 118 114 111 113 115 113 109 105 101 102 100 97
216 209 227 236 237 237 204 213 217 212 200 200 170 210 114 171 162 153 157 159 161 164 161 159 157 158 156 151 144 138 134 131 128 127 122 116 112 114 110 111 106 113 113 113 113 113 103 99 100
215 235 232 225 230 241 206 191 222 226 232 109 231 229 199 151 157 154 156 159 162 162 153 152 155 152 146 143 139 136 138 134 135 129 127 128 125 127 118 115 112 105 111 113 112 118 120 119 110
209 225 223 211 230 226 173 198 180 266 205 199 184 260 63 152 157 159 158 160 163 165 158 151 148 153 144 142 144 143 139 137 131 130 131 130 122 126 127 128 125 113 111 120 126 134 139 134 129
201 219 221 215 234 221 188 201 182 187 194 201 193 161 134 155 169 177 173 169 162 166 162 158 153 149 150 149 149 147 146 143 141 139 136 136 130 127 129 136 145 147 145 140 132 128 126 133 119
215 226 217 218 226 224 206 205 177 188 194 206 206 182 158 163 175 187 189 181 164 164 162 164 160 149 155 154 155 153 149 149 148 147 146 146 151 152 150 149 146 139 137 134 132 128 124 121 122
230 220 234 228 224 213 206 208 206 212 212 194 160 153 164 171 176 186 187 171 169 157 161 161 166 162 155 153 157 154 154 150 148 146 149 140 136 138 137 139 141 134 118 117 114 128 124 122 117
218 225 223 229 219 218 221 217 214 208 212 145 138 152 170 178 182 183 182 166 165 162 161 166 164 165 163 159 157 156 152 154 151 148 140 135 131 133 140 135 132 129 123 119 118 128 129 125 120
181 222 231 226 224 220 223 224 212 215 208 188 173 177 177 177 178 181 182 167 170 170 166 164 162 164 166 162 160 158 154 155 149 146 144 146 135 132 141 140 133 131 130 127 122 124 130 123 122
237 221 231 229 227 218 220 241 227 229 222 211 200 193 183 182 181 190 190 182 175 171 169 170 169 163 164 162 161 157 154 156 153 149 149 149 140 136 140 144 146 142 140 138 136 131 135 131 124
218 231 233 206 220 204 187 246 221 220 224 217 217 210 198 192 196 195 192 183 177 174 168 169 166 168 165 163 162 160 158 154 152 149 147 146 145 140 140 143 143 144 145 145 137 137 135 132 131
199 223 225 228 203 207 211 244 233 202 221 232 229 230 220 208 204 193 188 189 176 179 174 172 173 171 166 159 160 159 158 155 153 148 150 147 148 142 143 146 144 145 147 147 148 140 138 133 126
208 221 225 217 206 214 215 233 227 221 225 222 220 220 212 197 196 188 187 170 169 176 176 172 168 169 166 164 158 156 152 149 146 154 152 155 152 147 148 150 150 151 152 150 149 148 141 134 129
226 224 229 212 199 208 223 228 222 195 201 202 198 204 208 206 177 180 186 157 160 175 175 174 170 165 168 162 155 151 151 146 147 149 155 157 151 151 149 153 153 156 158 154 153 144 142 125 124
229 230 225 197 193 212 220 228 223 205 203 193 183 181 189 180 174 173 179 155 163 165 174 175 175 170 168 169 159 155 146 150 143 150 149 154 151 152 153 158 160 162 162 158 157 157 142 139 155
205 216 209 204 182 213 214 228 216 201 186 156 171 189 196 194 179 175 177 162 158 161 170 173 174 170 168 169 163 153 146 142 140 151 149 144 151 155 156 156 162 165 171 164 164 162 161 148 160
230 172 165 152 164 194 204 227 206 193 193 194 188 195 193 183 181 174 170 157 152 154 164 170 167 170 172 168 164 158 146 145 157 156 147 142 150 150 155 157 160 164 167 169 169 172 170 175 169
246 241 207 175 190 178 205 227 232 162 212 202 180 180 170 179 168 165 148 134 136 148 151 156 164 166 166 170 165 160 151 148 153 146 145 144 148 147 154 156 158 164 167 172 178 175 174 174 168
140 130 259 227 204 214 206 210 213 190 205 142 173 162 151 118 114 111 116 117 119 136 147 153 155 156 165 168 170 166 158 153 149 145 147 143 145 143 149 152 155 161 166 171 176 177 173 172 165
158 154 164 180 197 216 203 202 101 117 65 160 162 155 131 116 126 129 129 128 127 132 138 144 151 147 161 164 162 160 159 161 156 156 154 148 146 144 150 146 148 159 164 167 170 171 174 163 156
177 182 211 171 178 162 177 207 148 5 325 194 123 130 119 98 117 125 129 131 130 132 138 143 145 145 156 154 153 154 155 158 159 158 156 157 153 146 144 141 143 146 146 147 146 142 135 125 121
147 212 96 104 358 167 170 110 119 108 117 129 129 115 98 97 105 121 119 119 124 125 132 140 141 143 150 150 150 148 156 158 157 159 158 153 147 142 142 142 143 140 139 137 132 126 117 115 112
261 79 170 203 169 156 164 202 100 171 152 140 132 112 105 103 98 103 111 110 114 120 129 137 139 139 140 141 143 149 155 157 155 153 151 148 145 144 141 140 139 137 135 132 128 119 115 115 110
52 120 348 30 345 185 151 133 70 171 166 150 135 116 106 99 98 97 97 101 112 122 128 131 134 133 133 138 146 150 151 152 149 146 145 146 147 147 145 144 140 137 133 131 127 122 122 119 116
62 23 5 285 137 54 356 111 351 200 154 143 135 123 111 105 104 101 102 103 104 109 113 116 123 133 142 146 147 147 148 150 147 144 146 147 144 144 144 143 139 136 133 130 129 129 128 127 125